Time,TemperatureF,DewpointF,PressureIn,WindDirection,WindDirectionDegrees,WindSpeedMPH,WindSpeedGustMPH,Humidity,HourlyPrecipIn,Conditions,Clouds,dailyrainin,SoftwareType,DateUTC
2013-05-02 00:12:00,57.2,55.2,30.08,ESE,112,4.0,-999.0,93,-99.99,,,0.00,Acu-Link.com,2013-05-02 04:12:00,
2013-05-02 00:27:00,55.4,54.0,30.08,ESE,112,3.6,-999.0,95,-99.99,,,0.00,Acu-Link.com,2013-05-02 04:27:00,
2013-05-02 00:42:00,55.4,54.3,30.07,NNW,337,2.7,-999.0,96,-99.99,,,0.00,Acu-Link.com,2013-05-02 04:42:00,
2013-05-02 00:57:00,55.4,54.3,30.07,NNE,22,2.0,-999.0,96,-99.99,,,0.00,Acu-Link.com,2013-05-02 04:57:00,
2013-05-02 01:13:00,55.4,54.6,30.07,NE,45,3.6,-999.0,97,-99.99,,,0.01,Acu-Link.com,2013-05-02 05:13:00,
2013-05-02 01:28:00,55.4,54.6,30.07,ESE,112,2.0,-999.0,97,-99.99,,,0.01,Acu-Link.com,2013-05-02 05:28:00,
2013-05-02 01:43:00,55.4,54.6,30.06,NNE,22,2.0,-999.0,97,-99.99,,,0.02,Acu-Link.com,2013-05-02 05:43:00,
2013-05-02 01:58:00,55.4,54.6,30.06,ESE,112,3.6,-999.0,97,-99.99,,,0.02,Acu-Link.com,2013-05-02 05:58:00,
2013-05-02 02:13:00,55.4,54.6,30.05,East,90,2.7,-999.0,97,-99.99,,,0.02,Acu-Link.com,2013-05-02 06:13:00,
2013-05-02 02:29:00,55.4,54.8,30.05,NW,315,1.6,-999.0,98,-99.99,,,0.02,Acu-Link.com,2013-05-02 06:29:00,
2013-05-02 02:44:00,55.4,54.8,30.05,East,90,2.7,-999.0,98,-99.99,,,0.04,Acu-Link.com,2013-05-02 06:44:00,
2013-05-02 02:59:00,55.4,54.8,30.04,ENE,67,1.1,-999.0,98,-99.99,,,0.07,Acu-Link.com,2013-05-02 06:59:00,
2013-05-02 03:14:00,55.4,54.8,30.04,West,270,3.1,-999.0,98,-99.99,,,0.07,Acu-Link.com,2013-05-02 07:14:00,
2013-05-02 03:30:00,55.4,54.8,30.03,ESE,112,1.1,-999.0,98,-99.99,,,0.07,Acu-Link.com,2013-05-02 07:30:00,
2013-05-02 03:45:00,55.4,55.1,30.03,NNE,22,3.1,-999.0,99,-99.99,,,0.07,Acu-Link.com,2013-05-02 07:45:00,
2013-05-02 04:00:00,55.4,55.1,30.03,NE,45,4.0,-999.0,99,-99.99,,,0.07,Acu-Link.com,2013-05-02 08:00:00,
2013-05-02 04:16:00,55.4,55.1,30.03,NE,45,2.7,-999.0,99,-99.99,,,0.07,Acu-Link.com,2013-05-02 08:16:00,
2013-05-02 04:31:00,55.4,55.1,30.03,NE,45,4.7,-999.0,99,-99.99,,,0.07,Acu-Link.com,2013-05-02 08:31:00,
2013-05-02 04:46:00,55.4,55.1,30.04,NE,45,1.6,-999.0,99,-99.99,,,0.07,Acu-Link.com,2013-05-02 08:46:00,
2013-05-02 05:01:00,55.4,55.1,30.04,NNW,337,2.0,-999.0,99,-99.99,,,0.07,Acu-Link.com,2013-05-02 09:01:00,
2013-05-02 05:16:00,55.4,54.8,30.04,NNW,337,2.7,-999.0,98,-99.99,,,0.07,Acu-Link.com,2013-05-02 09:16:00,
2013-05-02 05:32:00,55.4,54.8,30.04,North,0,2.0,-999.0,98,-99.99,,,0.07,Acu-Link.com,2013-05-02 09:32:00,
2013-05-02 05:47:00,55.4,54.8,30.04,NNW,337,5.6,-999.0,98,-99.99,,,0.07,Acu-Link.com,2013-05-02 09:47:00,
2013-05-02 06:02:00,55.4,54.8,30.04,ENE,67,2.7,-999.0,98,-99.99,,,0.07,Acu-Link.com,2013-05-02 10:02:00,
2013-05-02 06:17:00,55.4,54.8,30.04,NNW,337,2.7,-999.0,98,-99.99,,,0.07,Acu-Link.com,2013-05-02 10:17:00,
2013-05-02 06:32:00,55.4,54.8,30.04,WSW,247,3.6,-999.0,98,-99.99,,,0.07,Acu-Link.com,2013-05-02 10:32:00,
2013-05-02 06:48:00,55.4,54.8,30.05,WNW,292,2.0,-999.0,98,-99.99,,,0.07,Acu-Link.com,2013-05-02 10:48:00,
2013-05-02 07:03:00,55.4,54.8,30.05,NNW,337,5.1,-999.0,98,-99.99,,,0.07,Acu-Link.com,2013-05-02 11:03:00,
2013-05-02 07:18:00,55.4,54.8,30.06,South,180,1.6,-999.0,98,-99.99,,,0.07,Acu-Link.com,2013-05-02 11:18:00,
2013-05-02 07:34:00,55.4,54.8,30.06,ENE,67,2.7,-999.0,98,-99.99,,,0.07,Acu-Link.com,2013-05-02 11:34:00,
2013-05-02 07:49:00,55.4,54.8,30.06,SSW,202,4.0,-999.0,98,-99.99,,,0.07,Acu-Link.com,2013-05-02 11:49:00,
2013-05-02 08:04:00,55.4,54.8,30.07,ENE,67,2.0,-999.0,98,-99.99,,,0.07,Acu-Link.com,2013-05-02 12:04:00,
2013-05-02 08:19:00,55.4,54.6,30.07,ESE,112,2.0,-999.0,97,-99.99,,,0.07,Acu-Link.com,2013-05-02 12:19:00,
2013-05-02 08:35:00,55.4,54.6,30.08,ESE,112,2.7,-999.0,97,-99.99,,,0.07,Acu-Link.com,2013-05-02 12:35:00,
2013-05-02 08:50:00,55.4,54.3,30.08,NNE,22,2.0,-999.0,96,-99.99,,,0.07,Acu-Link.com,2013-05-02 12:50:00,
2013-05-02 09:05:00,55.4,54.0,30.09,SSW,202,2.7,-999.0,95,-99.99,,,0.07,Acu-Link.com,2013-05-02 13:05:00,
2013-05-02 09:20:00,55.4,53.7,30.08,NNW,337,3.6,-999.0,94,-99.99,,,0.07,Acu-Link.com,2013-05-02 13:20:00,
2013-05-02 09:36:00,55.4,53.1,30.08,South,180,2.7,-999.0,92,-99.99,,,0.07,Acu-Link.com,2013-05-02 13:36:00,
2013-05-02 09:51:00,57.2,54.6,30.08,West,270,2.0,-999.0,91,-99.99,,,0.07,Acu-Link.com,2013-05-02 13:51:00,
2013-05-02 10:06:00,57.2,54.3,30.09,NW,315,2.7,-999.0,90,-99.99,,,0.07,Acu-Link.com,2013-05-02 14:06:00,
2013-05-02 10:21:00,57.2,54.3,30.09,NNW,337,3.1,-999.0,90,-99.99,,,0.07,Acu-Link.com,2013-05-02 14:21:00,
2013-05-02 10:37:00,59.0,55.4,30.09,West,270,3.1,-999.0,88,-99.99,,,0.07,Acu-Link.com,2013-05-02 14:37:00,
2013-05-02 10:52:00,59.0,55.4,30.09,SSE,157,2.0,-999.0,88,-99.99,,,0.07,Acu-Link.com,2013-05-02 14:52:00,
2013-05-02 11:07:00,59.0,55.1,30.10,NNW,337,2.0,-999.0,87,-99.99,,,0.07,Acu-Link.com,2013-05-02 15:07:00,
2013-05-02 11:22:00,59.0,54.5,30.10,NW,315,5.6,-999.0,85,-99.99,,,0.07,Acu-Link.com,2013-05-02 15:22:00,
2013-05-02 11:38:00,60.8,55.9,30.10,North,0,3.1,-999.0,84,-99.99,,,0.07,Acu-Link.com,2013-05-02 15:38:00,
2013-05-02 11:53:00,59.0,53.8,30.10,NW,315,4.0,-999.0,83,-99.99,,,0.07,Acu-Link.com,2013-05-02 15:53:00,
2013-05-02 12:08:00,60.8,55.9,30.10,ESE,112,2.7,-999.0,84,-99.99,,,0.07,Acu-Link.com,2013-05-02 16:08:00,
2013-05-02 12:24:00,60.8,55.3,30.10,NE,45,3.6,-999.0,82,-99.99,,,0.07,Acu-Link.com,2013-05-02 16:24:00,
2013-05-02 12:39:00,60.8,55.3,30.10,NNE,22,2.0,-999.0,82,-99.99,,,0.07,Acu-Link.com,2013-05-02 16:39:00,
2013-05-02 12:54:00,60.8,55.9,30.10,NW,315,5.1,-999.0,84,-99.99,,,0.07,Acu-Link.com,2013-05-02 16:54:00,
2013-05-02 13:09:00,60.8,55.9,30.09,NW,315,4.0,-999.0,84,-99.99,,,0.07,Acu-Link.com,2013-05-02 17:09:00,
2013-05-02 13:25:00,60.8,56.3,30.09,ESE,112,4.0,-999.0,85,-99.99,,,0.07,Acu-Link.com,2013-05-02 17:25:00,
2013-05-02 13:40:00,60.8,56.3,30.09,North,0,4.7,-999.0,85,-99.99,,,0.07,Acu-Link.com,2013-05-02 17:40:00,
2013-05-02 13:55:00,60.8,55.6,30.09,NNE,22,1.1,-999.0,83,-99.99,,,0.07,Acu-Link.com,2013-05-02 17:55:00,
2013-05-02 14:10:00,60.8,55.3,30.09,NE,45,1.6,-999.0,82,-99.99,,,0.07,Acu-Link.com,2013-05-02 18:10:00,
2013-05-02 14:26:00,60.8,55.6,30.09,West,270,2.0,-999.0,83,-99.99,,,0.07,Acu-Link.com,2013-05-02 18:26:00,
2013-05-02 14:41:00,62.6,56.3,30.09,SE,135,2.7,-999.0,80,-99.99,,,0.07,Acu-Link.com,2013-05-02 18:41:00,
2013-05-02 14:56:00,62.6,56.0,30.08,NE,45,2.0,-999.0,79,-99.99,,,0.07,Acu-Link.com,2013-05-02 18:56:00,
2013-05-02 15:11:00,64.4,57.0,30.08,SW,225,2.7,-999.0,77,-99.99,,,0.07,Acu-Link.com,2013-05-02 19:11:00,
2013-05-02 15:27:00,62.6,56.0,30.07,ESE,112,2.7,-999.0,79,-99.99,,,0.07,Acu-Link.com,2013-05-02 19:27:00,
2013-05-02 15:42:00,62.6,56.0,30.08,NW,315,4.0,-999.0,79,-99.99,,,0.07,Acu-Link.com,2013-05-02 19:42:00,
2013-05-02 15:57:00,62.6,56.3,30.07,WNW,292,3.6,-999.0,80,-99.99,,,0.07,Acu-Link.com,2013-05-02 19:57:00,
2013-05-02 16:13:00,62.6,56.3,30.05,West,270,4.0,-999.0,80,-99.99,,,0.07,Acu-Link.com,2013-05-02 20:13:00,
2013-05-02 16:28:00,62.6,56.3,30.05,SSW,202,1.1,-999.0,80,-99.99,,,0.07,Acu-Link.com,2013-05-02 20:28:00,
2013-05-02 16:43:00,62.6,56.3,30.05,ESE,112,3.1,-999.0,80,-99.99,,,0.07,Acu-Link.com,2013-05-02 20:43:00,
2013-05-02 16:58:00,62.6,56.7,30.05,WNW,292,2.0,-999.0,81,-99.99,,,0.07,Acu-Link.com,2013-05-02 20:58:00,
2013-05-02 17:13:00,62.6,56.7,30.04,NW,315,2.7,-999.0,81,-99.99,,,0.07,Acu-Link.com,2013-05-02 21:13:00,
2013-05-02 17:29:00,62.6,56.3,30.04,West,270,4.0,-999.0,80,-99.99,,,0.07,Acu-Link.com,2013-05-02 21:29:00,
2013-05-02 17:44:00,62.6,56.7,30.04,ESE,112,3.1,-999.0,81,-99.99,,,0.07,Acu-Link.com,2013-05-02 21:44:00,
2013-05-02 17:59:00,62.6,56.7,30.04,NE,45,2.0,-999.0,81,-99.99,,,0.07,Acu-Link.com,2013-05-02 21:59:00,
2013-05-02 18:15:00,62.6,57.4,30.03,North,0,0.0,-999.0,83,-99.99,,,0.07,Acu-Link.com,2013-05-02 22:15:00,
2013-05-02 18:30:00,60.8,55.6,30.03,WNW,292,1.1,-999.0,83,-99.99,,,0.07,Acu-Link.com,2013-05-02 22:30:00,
2013-05-02 18:45:00,60.8,55.9,30.03,NNW,337,3.1,-999.0,84,-99.99,,,0.07,Acu-Link.com,2013-05-02 22:45:00,
2013-05-02 19:00:00,60.8,56.3,30.03,NE,45,2.0,-999.0,85,-99.99,,,0.07,Acu-Link.com,2013-05-02 23:00:00,
2013-05-02 19:16:00,60.8,56.6,30.02,SE,135,1.6,-999.0,86,-99.99,,,0.07,Acu-Link.com,2013-05-02 23:16:00,
2013-05-02 19:31:00,60.8,56.6,30.03,NNW,337,2.0,-999.0,86,-99.99,,,0.07,Acu-Link.com,2013-05-02 23:31:00,
2013-05-02 19:46:00,60.8,56.9,30.02,WNW,292,3.1,-999.0,87,-99.99,,,0.07,Acu-Link.com,2013-05-02 23:46:00,
2013-05-02 20:02:00,60.8,57.2,30.03,NNE,22,1.1,-999.0,88,-99.99,,,0.07,Acu-Link.com,2013-05-03 00:02:00,
2013-05-02 20:17:00,59.0,55.4,30.04,NNE,22,1.1,-999.0,88,-99.99,,,0.07,Acu-Link.com,2013-05-03 00:17:00,
2013-05-02 20:32:00,59.0,55.4,30.04,ENE,67,2.0,-999.0,88,-99.99,,,0.07,Acu-Link.com,2013-05-03 00:32:00,
2013-05-02 20:47:00,59.0,55.8,30.04,NNW,337,3.6,-999.0,89,-99.99,,,0.07,Acu-Link.com,2013-05-03 00:47:00,
2013-05-02 21:02:00,59.0,55.8,30.04,SSE,157,2.0,-999.0,89,-99.99,,,0.07,Acu-Link.com,2013-05-03 01:02:00,
2013-05-02 21:18:00,59.0,55.8,30.04,NW,315,3.6,-999.0,89,-99.99,,,0.07,Acu-Link.com,2013-05-03 01:18:00,
2013-05-02 21:33:00,59.0,55.8,30.04,NE,45,2.7,-999.0,89,-99.99,,,0.07,Acu-Link.com,2013-05-03 01:33:00,
2013-05-02 21:48:00,59.0,56.1,30.05,NNE,22,3.1,-999.0,90,-99.99,,,0.07,Acu-Link.com,2013-05-03 01:48:00,
2013-05-02 22:03:00,59.0,56.4,30.05,ENE,67,2.7,-999.0,91,-99.99,,,0.07,Acu-Link.com,2013-05-03 02:03:00,
2013-05-02 22:19:00,59.0,56.7,30.05,SSW,202,3.6,-999.0,92,-99.99,,,0.07,Acu-Link.com,2013-05-03 02:19:00,
2013-05-02 22:34:00,59.0,56.7,30.05,NNW,337,3.1,-999.0,92,-99.99,,,0.07,Acu-Link.com,2013-05-03 02:34:00,
2013-05-02 22:49:00,59.0,57.0,30.05,WNW,292,5.1,-999.0,93,-99.99,,,0.07,Acu-Link.com,2013-05-03 02:49:00,
2013-05-02 23:04:00,57.2,55.5,30.05,NE,45,2.0,-999.0,94,-99.99,,,0.07,Acu-Link.com,2013-05-03 03:04:00,
2013-05-02 23:19:00,57.2,55.5,30.04,East,90,2.0,-999.0,94,-99.99,,,0.07,Acu-Link.com,2013-05-03 03:19:00,
2013-05-02 23:34:00,57.2,55.2,30.03,NE,45,2.0,-999.0,93,-99.99,,,0.07,Acu-Link.com,2013-05-03 03:34:00,
2013-05-02 23:50:00,57.2,55.2,30.03,WNW,292,2.0,-999.0,93,-99.99,,,0.07,Acu-Link.com,2013-05-03 03:50:00,